STARLINK-1072 (44935 NORAD) Tracking and Keplerian Element Data

This shows tracking and keplerian element data for the satellite.

Feedback or suggestion? Click here.




ElementValue
Catalog44935
NameSTARLINK-1072
Epoch Orbit2766
Epoch Day187.50002315
Epoch Year2020
RAAN273.53
Inclination53.0005
Eccentricity9.66E-05
Argument of Perigee109.219
Mean Anonmoly49.9692
Mean Motion15.0557351
Decay Rate-0.00021056
L11 44935U 20001X 20187.50002315 -.00021056 00000-0 -14305-2 0 9993
L22 44935 53.0005 273.5300 0000966 109.2190 49.9692 15.05573510 27665

Live tracking and technical data element details for STARLINK-1072 (NORAD 44935). STARLINK-1072 can be tracked NOW for your location showing map with azimuth and elevation plus other details from your city location.

Track the satellite on the map from your city or location and see movement details for azimuth, elevation, latitude, longitude, range, height, and movement on the map or in text.







IsCatalogInMostPopularTable: catalog: 44935, numindb: 35
Update: records affected: 1



GetName: 44935 STARLINK-1072

Hit Count: updated at: Mon, 06 Jul 2020 04:46:01 GMT